Location: MAS Eagle Lake Observatory
(44.8103°N, 93.9397°W)
Time: 22:22:12
(UTC-06:00)

Amateur Radio Satellites - All Passes

Search period start: 16 December 2017 21:52
Search period end: 17 December 2017 21:52
Location: MAS Eagle Lake Observatory, 44.8103°N, 93.9397°W

Satellite Date Start Highest point End Downlink Frequencies (MHz)
Time Altitude Azimuth
Max Valier Satellite 16 Dec 21:54:43 21:57:53 27° 264° (W) 22:01:06 145.860
RS-15 16 Dec 21:56:29 22:08:05 50° 39° (NE) 22:19:01 29.354- 29.394
SO-50 16 Dec 22:09:55 22:13:25 21° 37° (NE) 22:16:58 436.795
AO-85 16 Dec 22:13:09 22:17:02 59° 308° (NW) 22:21:11 145.980
DELFI C3 16 Dec 22:16:50 22:18:47 13° 270° (W) 22:20:44 145.870
EO-88 16 Dec 22:17:15 22:20:08 22° 266° (W) 22:23:02 145.990 - 145.960
BEESAT 2 16 Dec 22:34:22 22:36:45 15° 324° (NW) 22:39:07 435.950
FALCONSAT 3 16 Dec 22:38:10 22:40:42 18° 172° (S) 22:43:14 435.103
LO-87 16 Dec 22:38:57 22:42:28 84° 78° (ENE) 22:46:02 145.935 - 145.965
VELOX 1 16 Dec 22:40:29 22:42:02 12° 58° (ENE) 22:43:35 145.980
FO-29 16 Dec 22:49:53 22:54:10 18° 308° (NW) 22:58:10 435.910
ESTCUBE 1 16 Dec 22:50:55 22:55:26 84° 75° (ENE) 23:00:00 437.505/2401.250
PRISM 16 Dec 22:59:04 23:03:11 78° 102° (ESE) 23:07:15 437.425
SPROUT 16 Dec 22:59:44 23:03:14 26° 67° (ENE) 23:06:45 437.525
AIST 2D 16 Dec 23:00:39 23:03:50 30° 96° (E) 23:06:58 435.315
TIGRISAT 16 Dec 23:02:14 23:06:07 32° 291° (WNW) 23:10:04 435.000
UNISAT 6 16 Dec 23:06:22 23:10:04 27° 293° (WNW) 23:13:49 437.425
EO-79 16 Dec 23:13:49 23:16:13 15° 91° (E) 23:18:37 145.935-145.965
POLYITAN 1 16 Dec 23:36:36 23:40:10 26° 95° (E) 23:43:42 437.675
SO-50 16 Dec 23:49:43 23:54:23 74° 237° (WSW) 23:59:06 436.795
AO-85 16 Dec 23:56:50 23:58:25 12° 331° (NNW) 00:00:03 145.980
QB50P2 17 Dec 00:02:07 00:06:17 54° 100° (E) 00:10:25 145.880/145.840
DUCHIFAT 1 17 Dec 00:03:13 00:07:08 37° 98° (E) 00:11:03 145.980
RS-15 17 Dec 00:09:28 00:20:57 62° 245° (WSW) 00:31:49 29.354- 29.394
VELOX 1 17 Dec 00:13:20 00:17:47 87° 259° (WSW) 00:22:16 145.980
FALCONSAT 3 17 Dec 00:16:35 00:19:06 17° 188° (S) 00:21:36 435.103
NANOSAT C BR1 17 Dec 00:30:58 00:35:13 88° 114° (ESE) 00:39:25 145.865
ESTCUBE 1 17 Dec 00:32:03 00:32:50 10° 273° (W) 00:33:36 437.505/2401.250
50 SAT 17 Dec 00:33:34 00:36:18 27° 70° (ENE) 00:39:04 437.505
AIST 2D 17 Dec 00:34:15 00:36:47 19° 293° (WNW) 00:39:19 435.315
BUGSAT 1 17 Dec 00:34:19 00:37:18 19° 93° (E) 00:40:16 437.445
SPROUT 17 Dec 00:35:15 00:39:01 31° 264° (W) 00:42:48 437.525
PRISM 17 Dec 00:36:38 00:37:49 11° 301° (WNW) 00:39:00 437.425
UKube-1 17 Dec 00:40:39 00:44:16 27° 66° (ENE) 00:47:53 .
EO-79 17 Dec 00:48:10 00:52:17 53° 287° (WNW) 00:56:23 145.935-145.965
MOZHAYETS 4 17 Dec 00:59:53 01:00:49 11° 57° (ENE) 01:01:46
DX 1 17 Dec 01:01:00 01:05:21 68° 73° (ENE) 01:09:42 434.975-435.025
POLYITAN 1 17 Dec 01:12:13 01:15:55 30° 292° (WNW) 01:19:38 437.675
Gurwin Techsat 1B 17 Dec 01:19:31 01:24:01 27° 94° (E) 01:28:28 435.225
YUBILEINY 17 Dec 01:28:21 01:34:35 22° 78° (ENE) 01:40:49 435.215
PCSat 17 Dec 01:29:35 01:33:12 18° 36° (NE) 01:36:49 145.827
AO-91 17 Dec 01:38:19 01:41:38 45° 99° (E) 01:44:53 145.960
QB50P2 17 Dec 01:39:03 01:41:38 16° 297° (WNW) 01:44:14 145.880/145.840
DUCHIFAT 1 17 Dec 01:39:23 01:42:34 21° 295° (WNW) 01:45:45 145.980
BEESAT 17 Dec 01:40:44 01:44:10 20° 62° (ENE) 01:47:37 436.000
Oscar 19 17 Dec 01:55:58 02:01:12 76° 103° (ESE) 02:06:24 437.125/150
50 SAT 17 Dec 02:06:20 02:08:17 15° 266° (W) 02:10:14 437.505
BUGSAT 1 17 Dec 02:09:01 02:12:46 37° 290° (WNW) 02:16:31 437.445
NANOSAT C BR1 17 Dec 02:09:34 02:10:13 10° 301° (WNW) 02:10:52 145.865
ITUPSAT 1 17 Dec 02:09:48 02:14:06 35° 67° (ENE) 02:18:25 437.325
UKube-1 17 Dec 02:16:20 02:20:11 31° 263° (W) 02:24:03 .
RS-15 17 Dec 02:26:16 02:30:32 13° 268° (W) 02:34:46 29.354- 29.394
CUBESAT XI-V 17 Dec 02:27:19 02:30:42 20° 63° (ENE) 02:34:07 437.345
MOZHAYETS 4 17 Dec 02:32:38 02:37:10 82° 77° (ENE) 02:41:47
DX 1 17 Dec 02:40:07 02:41:59 12° 270° (W) 02:43:50 434.975-435.025
BEESAT 3 17 Dec 02:47:00 02:49:33 16° 37° (NE) 02:52:04 437.485
M-CUBED/EXP-1 PRIME 17 Dec 02:53:57 02:55:38 12° 92° (E) 02:57:17 437.505
Gurwin Techsat 1B 17 Dec 02:59:05 03:04:06 43° 292° (WNW) 03:09:05 435.225
PCSat 17 Dec 03:12:02 03:17:30 79° 58° (ENE) 03:22:55 145.827
ITAMSAT 1 17 Dec 03:14:28 03:18:39 24° 94° (E) 03:22:48 435.822/435.867
AO-91 17 Dec 03:16:37 03:17:43 11° 298° (WNW) 03:18:49 145.960
BEESAT 17 Dec 03:16:57 03:21:34 52° 260° (W) 03:26:14 436.000
YUBILEINY 17 Dec 03:21:23 03:30:14 84° 278° (W) 03:39:09 435.215
AO-7 17 Dec 03:29:06 03:37:14 51° 102° (ESE) 03:45:18 .
BEESAT 2 17 Dec 03:33:33 03:36:00 15° 36° (NE) 03:38:25 435.950
Oscar 19 17 Dec 03:36:41 03:39:54 17° 301° (WNW) 03:43:06 437.125/150
ITUPSAT 1 17 Dec 03:47:56 03:51:58 27° 265° (W) 03:56:02 437.325
KKS-1 17 Dec 04:03:05 04:07:09 36° 68° (ENE) 04:11:14 437.445
CUBESAT XI-V 17 Dec 04:03:11 04:07:42 50° 261° (W) 04:12:18 437.345
MOZHAYETS 4 17 Dec 04:13:54 04:14:56 11° 273° (W) 04:15:59
BEESAT 3 17 Dec 04:23:37 04:27:34 74° 236° (SW) 04:31:25 437.485
M-CUBED/EXP-1 PRIME 17 Dec 04:26:04 04:30:35 74° 290° (WNW) 04:34:46 437.505
STARS 17 Dec 04:38:18 04:42:14 33° 68° (ENE) 04:46:11 437.465
ITAMSAT 1 17 Dec 04:53:23 04:58:20 46° 291° (WNW) 05:03:14 435.822/435.867
DOVE 4 17 Dec 04:53:41 04:57:57 43° 98° (E) 05:01:59 437.250
PCSat 17 Dec 04:57:00 05:00:11 16° 256° (WSW) 05:03:24 145.827
AO-85 17 Dec 05:01:37 05:05:48 30° 44° (NE) 05:10:14 145.980
NO-84 17 Dec 05:03:21 05:04:47 13° 126° (SE) 05:06:14 435.350 FM
BEESAT 2 17 Dec 05:10:13 05:14:16 85° 236° (SW) 05:18:15 435.950
AO-7 17 Dec 05:22:09 05:29:50 42° 301° (WNW) 05:37:31 .
YUBILEINY 17 Dec 05:22:23 05:28:31 20° 302° (WNW) 05:34:42 435.215
LilacSat-2 17 Dec 05:30:18 05:33:09 19° 93° (E) 05:35:59 437.200
STRAND 1 17 Dec 05:33:40 05:37:15 20° 61° (ENE) 05:40:52 437.568
NUDT-PHONESAT 17 Dec 05:33:41 05:35:25 13° 90° (E) 05:37:09 437.300
FO-29 17 Dec 05:34:58 05:38:51 15° 49° (NE) 05:42:41 435.910
KKS-1 17 Dec 05:40:08 05:43:46 24° 265° (W) 05:47:25 437.445
XW-2D 17 Dec 05:40:31 05:43:40 24° 94° (E) 05:46:49 145.860 - 145.880
KAITUO 1B 17 Dec 05:41:49 05:44:23 17° 92° (E) 05:46:55 145.475/437.950
XW-2B 17 Dec 05:56:13 05:59:46 34° 97° (E) 06:03:17 145.730 - 145.750
M-CUBED/EXP-1 PRIME 17 Dec 06:03:02 06:04:02 11° 310° (NW) 06:05:02 437.505
XW-2F 17 Dec 06:05:39 06:09:20 41° 98° (E) 06:12:57 145.980 - 146.000
STARS 17 Dec 06:14:59 06:18:36 25° 265° (W) 06:22:14 437.465
XW-2C 17 Dec 06:23:35 06:27:28 76° 102° (ESE) 06:31:18 145.795 - 145.815
CUTE 1.7 + AOD 2 17 Dec 06:24:04 06:27:15 20° 92° (E) 06:30:25 437.475
DOVE 4 17 Dec 06:32:06 06:35:18 20° 297° (WNW) 06:38:24 437.250
NO-84 17 Dec 06:38:32 06:41:31 64° 325° (NW) 06:44:45 435.350 FM
CUTE-I 17 Dec 06:38:54 06:44:15 72° 103° (ESE) 06:49:32 437.470
AO-85 17 Dec 06:41:46 06:46:22 46° 241° (WSW) 06:51:16 145.980
HO-68 17 Dec 06:52:37 06:59:26 44° 99° (E) 07:06:10 435.675
LilacSat-2 17 Dec 07:03:58 07:07:30 33° 290° (WNW) 07:11:00 437.200
NUDT-PHONESAT 17 Dec 07:05:54 07:09:32 48° 287° (WNW) 07:13:09 437.300
STRAND 1 17 Dec 07:10:55 07:15:58 61° 258° (WSW) 07:21:03 437.568
XW-2D 17 Dec 07:14:31 07:17:48 27° 291° (WNW) 07:21:04 145.860 - 145.880
FO-29 17 Dec 07:14:43 07:22:21 58° 69° (ENE) 07:29:55 435.910
KAITUO 1B 17 Dec 07:14:58 07:18:29 36° 289° (WNW) 07:21:58 145.475/437.950
AO-7 17 Dec 07:17:55 07:20:23 12° 324° (NW) 07:22:50 .
SEEDS 17 Dec 07:30:16 07:34:30 62° 100° (E) 07:38:41 437.485
XW-2B 17 Dec 07:30:54 07:33:42 20° 294° (WNW) 07:36:30 145.730 - 145.750
UWE-3 17 Dec 07:34:26 07:38:31 38° 98° (E) 07:42:41 435.000/436.395/437.385
AAUSAT CUBESAT 2 17 Dec 07:40:28 07:44:17 34° 97° (E) 07:48:04 437.432
XW-2F 17 Dec 07:40:39 07:43:05 16° 295° (WNW) 07:45:32 145.980 - 146.000
CUBEBUG 2 17 Dec 07:40:46 07:45:04 79° 103° (ESE) 07:49:29 437.445
ZACube-1 17 Dec 07:52:59 07:56:57 33° 96° (E) 08:00:58 437.345
O/OREOS (USA 219) 17 Dec 07:58:43 08:03:15 61° 110° (ESE) 08:07:45 437.305
CUTE 1.7 + AOD 2 17 Dec 07:59:13 08:03:14 40° 289° (WNW) 08:07:13 437.475
XW-2C 17 Dec 08:00:35 08:01:01 10° 299° (WNW) 08:01:27 145.795 - 145.815
Oscar 11 17 Dec 08:07:46 08:11:29 27° 95° (E) 08:15:10 .
NO-84 17 Dec 08:17:01 08:19:19 18° 347° (NNW) 08:21:45 435.350 FM
CUTE-I 17 Dec 08:20:11 08:23:43 18° 301° (WNW) 08:27:13 437.470
AO-73 17 Dec 08:24:50 08:29:11 63° 101° (E) 08:33:37 145.935
TIGRISAT 17 Dec 08:26:19 08:29:55 27° 67° (ENE) 08:33:31 435.000
XW-2A 17 Dec 08:28:23 08:31:46 57° 286° (WNW) 08:35:08 145.665 - 145.685
UNISAT 6 17 Dec 08:30:10 08:33:59 32° 69° (ENE) 08:37:48 437.425
HO-68 17 Dec 08:40:31 08:47:05 41° 298° (WNW) 08:53:38 435.675
FO-29 17 Dec 09:00:39 09:07:36 34° 267° (W) 09:14:34 435.910
SEEDS 17 Dec 09:07:24 09:09:40 14° 298° (WNW) 09:11:56 437.485
UWE-3 17 Dec 09:11:24 09:14:46 22° 294° (WNW) 09:18:11 435.000/436.395/437.385
AAUSAT CUBESAT 2 17 Dec 09:16:16 09:19:32 23° 294° (WNW) 09:22:46 437.432
CUBEBUG 2 17 Dec 09:19:33 09:21:06 12° 299° (WNW) 09:22:40 437.445
Max Valier Satellite 17 Dec 09:22:22 09:25:20 22° 94° (E) 09:28:17 145.860
ZACube-1 17 Dec 09:29:27 09:33:06 26° 293° (WNW) 09:36:48 437.345
AIST 2D 17 Dec 09:37:13 09:39:22 15° 66° (ENE) 09:41:32 435.315
nSIGHT-1 17 Dec 09:38:47 09:40:23 13° 133° (SE) 09:42:01 .
O/OREOS (USA 219) 17 Dec 09:39:55 09:43:03 18° 309° (NW) 09:46:13 437.305
EO-88 17 Dec 09:43:10 09:46:17 25° 95° (E) 09:49:22 145.990 - 145.960
Oscar 11 17 Dec 09:43:46 09:47:36 31° 292° (WNW) 09:51:25 .
DELFI C3 17 Dec 09:49:06 09:53:03 68° 102° (ESE) 09:56:56 145.870
PRISM 17 Dec 09:49:24 09:53:32 70° 74° (ENE) 09:57:41 437.425
NO-84 17 Dec 09:55:21 09:57:36 16° 9° (N) 09:59:57 435.350 FM
AO-73 17 Dec 10:02:26 10:04:57 15° 298° (WNW) 10:07:29 145.935
TIGRISAT 17 Dec 10:02:50 10:06:33 28° 265° (W) 10:10:15 435.000
UNISAT 6 17 Dec 10:07:16 10:10:44 24° 266° (W) 10:14:13 437.425
EO-79 17 Dec 10:08:15 10:10:38 15° 62° (ENE) 10:13:02 145.935-145.965
ISS 17 Dec 10:30:07 10:33:01 29° 139° (SE) 10:35:57 437.550
POLYITAN 1 17 Dec 10:30:54 10:34:17 25° 66° (ENE) 10:37:42 437.675
ESTCUBE 1 17 Dec 10:42:40 10:45:24 16° 90° (E) 10:48:08 437.505/2401.250
Max Valier Satellite 17 Dec 10:55:55 10:59:07 27° 291° (WNW) 11:02:19 145.860
QB50P2 17 Dec 10:56:05 11:00:08 50° 72° (ENE) 11:04:12 145.880/145.840
DUCHIFAT 1 17 Dec 10:56:29 11:00:15 34° 69° (ENE) 11:04:02 145.980
AIST 2D 17 Dec 11:08:58 11:12:14 36° 263° (W) 11:15:32 435.315
nSIGHT-1 17 Dec 11:12:56 11:16:09 89° 317° (NW) 11:19:24 .
EO-88 17 Dec 11:16:51 11:19:47 23° 292° (WNW) 11:22:44 145.990 - 145.960
NANOSAT C BR1 17 Dec 11:24:16 11:28:26 81° 75° (ENE) 11:32:38 145.865
DELFI C3 17 Dec 11:25:52 11:27:13 12° 299° (WNW) 11:28:35 145.870
BUGSAT 1 17 Dec 11:26:02 11:28:47 18° 64° (ENE) 11:31:32 437.445
PRISM 17 Dec 11:28:03 11:29:15 11° 271° (W) 11:30:27 437.425
NO-84 17 Dec 11:32:15 11:35:36 37° 28° (NNE) 11:39:12 435.350 FM
YUBILEINY 17 Dec 11:35:41 11:38:50 12° 50° (NE) 11:41:57 435.215
LO-87 17 Dec 11:36:49 11:40:23 81° 99° (E) 11:43:56 145.935 - 145.965
Oscar 19 17 Dec 11:37:23 11:40:59 20° 60° (ENE) 11:44:36 437.125/150
EO-79 17 Dec 11:41:49 11:45:56 57° 259° (W) 11:50:05 145.935-145.965
VELOX 1 17 Dec 12:02:39 12:05:14 15° 91° (E) 12:07:49 145.980
POLYITAN 1 17 Dec 12:06:12 12:09:56 31° 263° (W) 12:13:41 437.675
ISS 17 Dec 12:06:13 12:09:24 47° 337° (NNW) 12:12:37 437.550
ESTCUBE 1 17 Dec 12:18:06 12:22:34 57° 288° (WNW) 12:27:00 437.505/2401.250
SPROUT 17 Dec 12:18:16 12:22:13 36° 97° (E) 12:26:08 437.525
RS-15 17 Dec 12:26:07 12:34:08 21° 97° (E) 12:42:06 29.354- 29.394
DUCHIFAT 1 17 Dec 12:32:46 12:35:59 22° 266° (W) 12:39:14 145.980
QB50P2 17 Dec 12:33:42 12:36:13 15° 269° (W) 12:38:43 145.880/145.840
AO-91 17 Dec 12:36:01 12:40:39 56° 74° (ENE) 12:44:50 145.960
AO-7 17 Dec 12:40:47 12:46:34 21° 47° (NE) 12:52:21 .
Gurwin Techsat 1B 17 Dec 12:42:10 12:47:18 51° 70° (ENE) 12:52:28 435.225
nSIGHT-1 17 Dec 12:49:51 12:52:40 27° 348° (NNW) 12:55:30 .
BUGSAT 1 17 Dec 13:00:02 13:03:51 41° 261° (W) 13:07:40 437.445
NO-84 17 Dec 13:09:23 13:12:54 39° 225° (SW) 13:16:39 435.350 FM
Oscar 19 17 Dec 13:14:44 13:19:49 62° 258° (WSW) 13:24:57 437.125/150
50 SAT 17 Dec 13:19:45 13:21:52 17° 94° (E) 13:23:59 437.505
YUBILEINY 17 Dec 13:29:27 13:38:06 55° 75° (ENE) 13:46:38 435.215
VELOX 1 17 Dec 13:37:42 13:42:02 55° 288° (WNW) 13:46:18 145.980
M-CUBED/EXP-1 PRIME 17 Dec 13:39:15 13:42:44 23° 58° (ENE) 13:46:18 437.505
ISS 17 Dec 13:43:39 13:46:25 24° 357° (N) 13:49:10 437.550
SPROUT 17 Dec 13:54:35 13:57:54 22° 294° (WNW) 14:01:11 437.525
UKube-1 17 Dec 14:00:51 14:04:49 35° 98° (E) 14:08:45 .
SO-50 17 Dec 14:06:33 14:09:58 22° 113° (ESE) 14:13:25 436.795
AO-91 17 Dec 14:14:25 14:17:18 16° 267° (W) 14:20:02 145.960
DX 1 17 Dec 14:23:11 14:27:33 83° 286° (WNW) 14:31:53 434.975-435.025
Gurwin Techsat 1B 17 Dec 14:23:25 14:27:31 23° 267° (W) 14:31:40 435.225
MOZHAYETS 4 17 Dec 14:26:41 14:29:42 17° 91° (E) 14:32:42
nSIGHT-1 17 Dec 14:26:45 14:29:32 25° 9° (N) 14:32:18 .
AO-7 17 Dec 14:29:48 14:38:05 79° 69° (ENE) 14:46:27 .
RS-15 17 Dec 14:32:17 14:44:34 76° 119° (ESE) 14:56:43 29.354- 29.394
ITAMSAT 1 17 Dec 14:33:55 14:38:52 45° 68° (ENE) 14:43:48 435.822/435.867
50 SAT 17 Dec 14:51:11 14:53:48 24° 291° (WNW) 14:56:25 437.505
M-CUBED/EXP-1 PRIME 17 Dec 15:12:30 15:16:45 47° 256° (WSW) 15:21:13 437.505
BEESAT 17 Dec 15:15:03 15:19:23 33° 97° (E) 15:23:40 436.000
ISS 17 Dec 15:20:27 15:23:30 34° 17° (NNE) 15:26:34 437.550
YUBILEINY 17 Dec 15:26:48 15:34:32 36° 276° (W) 15:42:13 435.215
UKube-1 17 Dec 15:37:12 15:40:39 24° 295° (WNW) 15:44:06 .
ITUPSAT 1 17 Dec 15:45:21 15:50:07 64° 102° (ESE) 15:54:52 437.325
SO-50 17 Dec 15:45:46 15:50:06 48° 311° (NW) 15:54:30 436.795
CUBESAT XI-V 17 Dec 15:57:42 16:02:02 35° 96° (E) 16:06:19 437.345
DOVE 4 17 Dec 15:59:33 16:04:41 58° 73° (ENE) 16:09:39 437.250
MOZHAYETS 4 17 Dec 16:02:39 16:07:10 54° 288° (WNW) 16:11:42
nSIGHT-1 17 Dec 16:02:53 16:06:07 72° 29° (NNE) 16:09:19 .
ITAMSAT 1 17 Dec 16:14:17 16:18:30 25° 266° (W) 16:22:45 435.822/435.867
LilacSat-2 17 Dec 16:14:46 16:16:44 14° 63° (ENE) 16:18:42 437.200
XW-2D 17 Dec 16:24:00 16:26:23 16° 64° (ENE) 16:28:48 145.860 - 145.880
CUTE-I 17 Dec 16:24:26 16:28:23 21° 61° (ENE) 16:32:20 437.470
KAITUO 1B 17 Dec 16:24:42 16:25:59 11° 62° (ENE) 16:27:17 145.475/437.950
AO-7 17 Dec 16:25:15 16:31:40 24° 268° (W) 16:38:09 .
O/OREOS (USA 219) 17 Dec 16:28:21 16:31:43 20° 52° (NE) 16:35:05 437.305
XW-2B 17 Dec 16:39:19 16:42:18 22° 67° (ENE) 16:45:19 145.730 - 145.750
RS-15 17 Dec 16:46:33 16:58:10 44° 326° (NW) 17:09:35 29.354- 29.394
XW-2F 17 Dec 16:48:08 16:51:19 26° 68° (ENE) 16:54:31 145.980 - 146.000
BEESAT 17 Dec 16:52:56 16:57:03 30° 294° (WNW) 17:01:10 436.000
ISS 17 Dec 16:56:53 17:00:07 52° 215° (SW) 17:03:19 437.550
XW-2C 17 Dec 17:06:09 17:09:47 45° 72° (ENE) 17:13:27 145.795 - 145.815
CUTE 1.7 + AOD 2 17 Dec 17:18:39 17:21:38 19° 64° (ENE) 17:24:37 437.475
HO-68 17 Dec 17:23:10 17:29:44 40° 62° (ENE) 17:36:19 435.675
ITUPSAT 1 17 Dec 17:24:24 17:27:26 17° 300° (WNW) 17:30:29 437.325
KKS-1 17 Dec 17:27:59 17:32:21 54° 101° (E) 17:36:39 437.445
SO-50 17 Dec 17:30:00 17:31:40 12° 333° (NNW) 17:33:22 436.795
CUBESAT XI-V 17 Dec 17:35:17 17:39:16 28° 294° (WNW) 17:43:13 437.345
DOVE 4 17 Dec 17:38:57 17:42:39 19° 269° (W) 17:46:16 437.250
nSIGHT-1 17 Dec 17:39:49 17:41:59 17° 225° (SW) 17:44:08 .
NUDT-PHONESAT 17 Dec 17:45:49 17:49:31 88° 264° (W) 17:53:16 437.300
LilacSat-2 17 Dec 17:46:49 17:50:33 52° 260° (W) 17:54:21 437.200
PCSat 17 Dec 17:55:21 18:00:33 49° 114° (ESE) 18:05:46 145.827
KAITUO 1B 17 Dec 17:55:43 17:59:26 62° 260° (W) 18:03:12 145.475/437.950
XW-2D 17 Dec 17:56:37 18:00:13 42° 262° (W) 18:03:52 145.860 - 145.880
STARS 17 Dec 18:01:17 18:05:32 48° 100° (E) 18:09:44 437.465
CUTE-I 17 Dec 18:02:40 18:07:58 61° 259° (WSW) 18:13:18 437.470
O/OREOS (USA 219) 17 Dec 18:07:04 18:11:25 50° 251° (WSW) 18:15:44 437.305
XW-2B 17 Dec 18:13:00 18:16:19 28° 264° (W) 18:19:41 145.730 - 145.750
BEESAT 3 17 Dec 18:17:15 18:18:14 11° 108° (ESE) 18:19:12 437.485
XW-2F 17 Dec 18:22:15 18:25:21 24° 266° (W) 18:28:29 145.980 - 146.000
SEEDS 17 Dec 18:23:10 18:27:16 52° 73° (ENE) 18:31:25 437.485
AAUSAT CUBESAT 2 17 Dec 18:32:03 18:35:40 29° 68° (ENE) 18:39:18 437.432
UWE-3 17 Dec 18:33:15 18:37:02 36° 70° (ENE) 18:40:51 435.000/436.395/437.385
CUBEBUG 2 17 Dec 18:40:28 18:44:38 80° 77° (ENE) 18:48:48 437.445
XW-2C 17 Dec 18:42:08 18:44:12 14° 269° (W) 18:46:16 145.795 - 145.815
ZACube-1 17 Dec 18:50:39 18:54:15 30° 68° (ENE) 18:57:55 437.345
CUTE 1.7 + AOD 2 17 Dec 18:53:02 18:57:07 45° 262° (W) 19:01:15 437.475
XW-2A 17 Dec 19:00:34 19:03:51 55° 74° (ENE) 19:07:10 145.665 - 145.685
Oscar 11 17 Dec 19:04:16 19:07:51 26° 67° (ENE) 19:11:28 .
RS-15 17 Dec 19:04:42 19:14:50 29° 359° (N) 19:24:38 29.354- 29.394
KKS-1 17 Dec 19:05:34 19:08:29 17° 298° (WNW) 19:11:22 437.445
HO-68 17 Dec 19:10:34 19:17:23 45° 261° (W) 19:24:14 435.675
STRAND 1 17 Dec 19:19:31 19:24:17 39° 98° (E) 19:29:02 437.568
AO-73 17 Dec 19:21:54 19:25:56 57° 73° (ENE) 19:30:02 145.935
STARS 17 Dec 19:38:30 19:41:30 18° 297° (WNW) 19:44:30 437.465
PCSat 17 Dec 19:39:24 19:44:10 30° 314° (NW) 19:48:57 145.827
BEESAT 3 17 Dec 19:51:09 19:55:08 79° 305° (NW) 19:59:09 437.485
SEEDS 17 Dec 20:00:47 20:03:15 15° 270° (W) 20:05:45 437.485
Max Valier Satellite 17 Dec 20:03:47 20:05:41 14° 64° (ENE) 20:07:36 145.860
AAUSAT CUBESAT 2 17 Dec 20:07:32 20:11:04 26° 265° (W) 20:14:38 437.432
FO-29 17 Dec 20:08:41 20:15:01 40° 94° (E) 20:20:36 435.910
UWE-3 17 Dec 20:10:34 20:13:38 20° 267° (W) 20:16:43 435.000/436.395/437.385
EO-88 17 Dec 20:23:04 20:25:18 16° 65° (ENE) 20:27:33 145.990 - 145.960
ZACube-1 17 Dec 20:27:09 20:30:33 24° 266° (W) 20:33:59 437.345
DELFI C3 17 Dec 20:35:30 20:39:21 47° 72° (ENE) 20:43:12 145.870
BEESAT 2 17 Dec 20:39:36 20:43:39 86° 309° (NW) 20:47:43 435.950
Oscar 11 17 Dec 20:40:01 20:43:52 31° 264° (W) 20:47:46 .
SO-50 17 Dec 20:56:38 20:57:17 10° 24° (NNE) 20:57:55 436.795
AO-85 17 Dec 20:58:18 21:01:51 35° 117° (ESE) 21:05:37 145.980
STRAND 1 17 Dec 20:58:59 21:03:18 29° 295° (WNW) 21:07:37 437.568
AO-73 17 Dec 21:00:37 21:02:34 13° 271° (W) 21:04:31 145.935
RS-15 17 Dec 21:20:14 21:31:31 43° 33° (NNE) 21:42:12 29.354- 29.394
BEESAT 3 17 Dec 21:31:19 21:33:20 13° 325° (NW) 21:35:20 437.485
Max Valier Satellite 17 Dec 21:35:35 21:39:07 46° 261° (W) 21:42:40 145.860
ESTCUBE 1 17 Dec 21:43:50 21:47:01 19° 63° (ENE) 21:50:11 437.505/2401.250
